Theta_e
328 328 326 327 327 327 325 322 321 321 320 321 322 324 324 324 327 327 330 323 333 342 344 342 341 339 338 337 337 336 335 333 333 332 332 329 327 327 326 327 327 326 324
327 327 325 326 325 327 327 323 321 319 318 319 320 320 321 323 323 325 326 326 329 335 340 341 341 339 337 336 336 334 333 331 329 331 330 328 328 327 325 324 324 323 323
326 326 325 326 326 326 326 324 322 321 319 319 318 320 321 322 322 323 325 325 329 326 333 339 340 339 336 335 335 333 331 328 329 329 328 327 325 324 323 322 322 322 323
325 325 326 326 326 325 324 323 322 320 320 319 318 319 320 320 320 321 323 323 325 327 327 332 334 335 336 335 334 332 330 329 329 328 327 325 323 322 321 321 322 322 322
321 323 324 326 325 324 323 322 320 320 318 319 318 319 320 319 321 319 319 320 320 323 326 326 325 326 331 334 333 331 329 328 326 326 324 322 321 321 322 322 323 322 322
310 316 321 323 324 322 320 321 318 320 319 318 317 318 318 317 319 320 318 318 319 319 322 325 323 323 325 331 331 330 328 326 326 324 321 321 321 322 322 322 322 321 321
305 307 306 320 322 321 320 319 318 316 317 318 316 314 314 315 316 317 318 318 316 317 319 319 319 321 324 327 329 329 327 326 325 323 321 322 322 322 322 322 322 322 322
302 304 304 304 319 320 319 318 317 315 316 318 314 308 304 306 309 313 315 317 316 316 316 318 318 318 319 319 320 326 325 324 323 323 323 322 322 322 323 323 323 323 323
300 301 305 305 304 320 318 317 316 315 313 316 316 311 303 302 306 302 310 314 315 315 316 317 317 317 317 316 321 321 321 321 323 323 323 323 323 323 324 324 324 325 325
299 301 303 304 304 307 317 318 317 316 315 312 313 312 309 308 303 298 300 305 313 313 314 317 317 315 316 315 312 312 315 318 320 323 324 323 324 324 325 326 326 327 327
299 300 298 302 303 301 312 317 317 316 316 314 312 308 305 307 306 304 300 297 300 306 312 314 315 314 315 313 309 309 315 319 319 319 321 323 325 326 326 327 326 325 325
297 297 297 298 302 304 308 316 316 316 316 315 313 310 308 306 305 306 302 301 304 296 303 309 310 310 311 311 306 304 312 317 319 318 319 320 323 325 326 326 325 324 324
294 295 296 297 298 299 302 313 315 315 315 314 312 310 310 309 309 308 304 296 295 293 296 299 304 305 306 307 305 301 304 312 316 317 317 317 320 321 323 324 324 323 322
295 296 296 297 296 297 302 303 313 315 314 314 312 310 308 309 310 309 305 300 290 290 293 295 298 299 300 301 301 298 303 308 312 315 316 316 317 318 319 321 321 321 320
293 296 295 294 295 295 297 301 299 312 313 313 312 310 308 309 310 311 308 306 300 291 289 293 294 295 297 297 297 298 300 301 309 311 312 313 314 316 318 319 319 319 317
286 294 294 294 293 293 294 300 299 308 311 312 311 309 307 308 309 310 308 308 306 302 298 294 293 295 296 295 294 297 300 299 304 308 310 311 313 314 315 316 316 316 315
283 287 294 293 291 291 292 293 300 307 309 310 310 308 305 306 308 309 309 308 307 307 302 292 293 295 294 293 293 295 297 299 302 304 307 309 310 311 311 311 312 312 311
283 283 284 292 290 291 291 292 295 297 307 308 308 307 305 304 305 307 308 307 308 308 304 291 291 294 293 292 293 296 294 294 294 302 306 307 307 307 308 308 308 308 307
278 280 283 289 289 290 290 291 291 296 307 308 308 306 305 304 303 303 305 307 307 305 302 293 288 290 291 294 291 288 291 290 288 299 304 304 305 305 306 305 305 304 303
276 277 279 283 288 289 289 289 290 294 302 308 309 308 306 304 303 302 302 302 302 297 295 294 291 291 291 289 295 293 291 285 288 289 295 298 301 301 303 302 301 299 300
276 276 277 278 281 288 288 288 289 292 294 307 306 308 307 304 299 302 301 301 298 295 293 291 289 288 287 290 291 292 292 289 283 284 287 285 289 289 296 298 294 296 299
275 275 275 277 279 283 289 290 290 290 293 304 304 306 306 298 297 298 299 300 298 292 291 290 289 288 287 291 291 290 289 288 287 285 291 285 289 288 289 288 295 297 299
272 274 274 276 278 281 287 291 290 290 292 303 304 303 303 302 297 299 298 297 297 297 296 293 289 290 288 290 290 289 289 289 290 288 290 287 282 287 286 291 296 297 298
271 274 274 275 278 285 290 291 290 290 292 300 303 303 302 299 298 297 296 295 294 295 294 294 292 292 290 292 291 290 290 286 285 289 285 285 284 282 285 285 296 296 297
269 271 275 275 279 283 289 290 290 289 291 299 301 302 302 298 298 297 294 292 291 292 295 295 295 295 294 294 293 289 288 287 279 285 287 280 281 279 279 281 289 295 296
268 271 275 277 279 282 287 288 290 289 291 298 297 297 296 298 296 298 295 293 290 291 291 289 289 293 293 293 293 291 290 287 284 281 287 281 284 281 278 277 285 289 291
Wind_Speed
10 6 5 5 6 6 6 7 7 8 5 6 2 6 6 5 5 3 4 10 16 25 31 30 30 29 29 26 24 24 25 23 19 20 20 18 19 19 19 19 19 18 17
10 9 6 6 8 8 7 8 10 9 8 5 6 4 1 3 4 5 3 4 11 13 28 29 30 29 28 27 25 25 26 24 21 19 20 21 20 20 19 18 18 18 17
14 12 9 8 8 9 11 7 8 8 8 6 8 9 4 2 3 6 4 3 7 8 13 26 27 27 28 28 27 25 25 22 22 22 22 20 21 20 19 18 17 18 18
17 14 10 10 10 10 11 11 10 9 9 9 9 8 9 7 4 5 4 3 4 5 2 15 22 26 26 28 29 27 26 24 23 23 22 21 20 19 19 18 18 18 18
18 14 12 10 15 14 13 12 10 11 10 10 10 10 8 9 10 6 4 4 3 5 7 8 17 20 25 26 26 27 26 25 24 23 22 21 20 20 20 19 18 17 17
15 18 13 14 14 15 15 14 15 11 12 12 11 10 8 7 8 9 7 4 3 4 7 9 8 10 19 23 24 25 26 25 25 24 23 22 21 21 20 19 16 15 14
16 14 11 17 13 14 14 16 14 16 11 12 10 7 6 6 8 7 7 7 5 4 6 10 4 6 9 19 21 24 25 24 25 24 24 23 23 21 20 19 16 15 13
14 14 15 14 16 14 17 17 18 11 9 13 11 6 6 3 2 4 7 10 12 6 6 9 9 8 9 7 10 19 24 25 25 26 25 24 23 21 19 18 16 14 12
9 14 16 17 21 13 15 23 19 20 13 11 15 12 6 6 8 2 4 6 11 9 9 11 11 10 10 10 10 14 19 22 24 25 25 25 23 21 19 17 15 14 8
9 9 16 12 17 16 15 14 19 18 16 18 11 11 6 10 12 6 2 3 8 9 10 11 12 9 9 9 8 9 16 17 20 23 23 23 23 21 19 18 14 16 18
7 5 12 19 16 8 23 18 19 22 17 17 15 10 2 6 7 11 11 4 3 4 8 11 10 9 10 10 7 8 16 17 15 17 20 20 20 19 18 19 19 18 16
5 4 6 12 15 22 21 14 18 21 20 19 15 15 13 13 12 12 10 11 13 1 1 8 10 9 8 10 10 11 15 16 16 15 15 14 15 18 20 19 18 16 15
4 7 5 10 11 12 18 13 16 18 22 19 20 16 13 12 14 13 10 6 5 2 2 1 4 6 7 8 10 12 11 12 13 15 15 14 15 14 15 16 16 16 16
7 8 6 5 12 13 15 19 13 15 14 19 23 18 13 13 14 14 12 11 4 3 2 4 1 4 5 6 10 14 8 13 12 14 14 14 15 15 15 15 16 17 16
15 7 6 4 8 10 14 17 12 16 17 17 19 20 16 13 14 15 13 15 11 7 3 3 4 3 5 5 8 8 9 11 13 13 13 14 14 14 15 17 18 18 20
19 16 8 7 4 10 11 11 11 24 17 15 16 20 18 13 16 14 14 14 14 7 8 4 3 7 6 4 8 7 7 13 13 13 14 14 15 17 19 20 21 20 21
19 18 13 7 4 8 9 12 18 14 20 18 21 23 22 18 13 13 13 13 14 12 11 2 3 6 5 8 6 5 6 6 6 14 15 16 18 19 20 20 19 20 20
18 15 16 11 8 8 8 11 16 10 19 25 21 23 24 15 17 14 13 17 16 15 11 11 4 6 4 6 6 9 6 5 6 11 15 16 18 19 19 20 19 18 18
16 19 16 16 6 7 6 8 13 15 18 21 24 23 23 22 20 14 15 16 14 12 11 10 6 3 4 6 6 4 5 5 3 11 15 17 18 19 19 19 18 15 14
16 18 17 16 15 8 6 10 12 16 18 18 24 24 23 23 23 19 16 15 14 12 11 11 8 10 7 4 7 12 7 3 4 3 6 8 15 16 19 18 17 16 16
14 17 19 17 18 14 7 9 10 15 17 20 19 23 24 24 29 24 15 15 14 12 13 11 10 8 8 10 13 8 8 8 2 2 4 2 5 5 8 13 12 15 18
15 16 18 18 17 13 19 17 17 13 15 22 19 23 22 24 24 29 29 25 20 16 14 12 10 13 14 16 11 13 12 10 6 4 9 4 7 7 6 5 15 19 20
19 16 18 18 18 18 28 22 20 12 16 19 22 20 19 16 22 22 24 24 22 28 28 18 20 19 18 19 17 17 18 16 10 9 10 8 2 8 5 8 21 22 22
17 17 17 17 18 16 23 21 19 12 15 21 22 23 22 20 22 23 21 18 17 18 19 14 19 15 11 17 16 11 13 7 6 9 6 7 6 5 6 4 22 24 24
16 16 16 17 18 20 20 18 17 12 13 19 19 20 23 21 29 34 23 20 17 14 15 19 23 25 26 32 23 11 11 12 3 6 10 5 4 3 3 4 9 23 23
17 14 17 17 18 16 18 21 20 10 14 13 16 18 25 24 31 37 25 21 19 17 16 8 7 14 21 24 31 21 18 14 6 3 10 6 9 7 4 3 7 10 12
Wind_Direction
248 231 221 166 165 161 166 156 145 135 129 97 85 173 172 157 138 135 163 182 167 175 158 157 151 150 147 147 147 143 134 127 129 123 124 125 129 127 123 116 111 110 103
255 244 221 187 175 168 182 171 164 162 147 171 126 92 91 126 165 124 141 157 166 187 153 160 156 153 150 148 147 139 133 135 126 127 128 128 125 120 119 118 115 112 109
263 250 232 199 190 170 181 176 160 159 151 170 161 150 123 20 183 133 122 131 153 161 180 157 158 153 151 152 151 143 133 138 134 133 134 133 131 128 125 124 123 117 111
275 256 240 217 192 175 180 178 173 168 176 173 179 174 169 141 111 67 102 68 142 146 159 153 159 156 153 151 145 143 140 140 139 136 134 134 135 136 133 130 126 123 118
289 258 245 228 199 178 182 174 168 173 172 180 174 169 171 170 158 135 116 117 115 147 141 167 145 152 151 149 147 145 146 149 145 142 141 145 144 140 137 133 132 128 123
317 310 255 247 243 178 179 171 166 179 176 172 171 167 160 157 152 172 144 125 119 125 122 136 141 149 148 149 150 150 152 154 153 147 151 148 146 146 139 137 139 135 129
317 307 323 274 226 244 174 172 162 167 168 172 151 152 146 146 152 154 166 168 138 128 128 120 121 134 149 149 148 156 155 156 153 155 155 151 148 147 144 146 146 143 139
309 310 306 318 273 216 186 180 168 169 171 172 165 138 145 120 115 171 152 168 165 145 154 144 147 151 146 136 149 162 161 162 162 161 155 153 152 151 156 155 158 154 154
301 313 301 282 305 253 200 174 176 176 169 182 172 167 156 169 153 341 162 156 150 160 156 154 158 150 161 131 157 171 165 162 165 161 159 157 157 162 166 168 171 169 181
280 306 305 270 276 307 235 194 178 179 170 181 168 193 189 134 168 149 6 85 170 163 168 165 159 152 152 134 126 170 157 162 166 164 162 163 165 170 171 178 193 162 144
266 314 322 316 292 304 267 213 179 177 180 180 174 178 117 138 171 162 163 147 69 182 180 159 157 153 156 132 144 150 159 161 167 166 166 175 169 175 185 163 151 149 148
249 264 292 292 314 270 284 215 193 185 180 182 177 179 186 165 172 167 157 174 166 280 113 149 151 157 157 147 148 152 142 153 166 166 168 171 165 157 159 161 161 157 161
230 248 259 296 283 308 285 262 201 194 184 183 179 180 185 175 168 166 143 152 145 129 79 28 130 154 150 150 149 147 151 148 148 158 158 163 159 160 161 168 162 161 162
249 235 233 270 297 292 291 289 218 191 204 180 180 178 176 178 172 171 152 155 102 100 191 139 116 154 137 145 149 144 149 163 176 157 164 169 166 169 165 161 160 156 150
302 225 219 248 297 322 299 281 308 197 192 193 181 175 170 176 174 169 158 166 162 152 166 191 134 187 146 138 149 147 161 173 181 171 171 176 176 167 157 153 147 147 147
305 284 217 209 251 282 302 278 290 247 181 191 182 172 171 170 177 166 163 174 170 161 159 136 181 160 154 136 154 149 159 168 175 169 170 167 163 155 149 146 146 152 155
311 324 264 222 226 289 292 293 266 272 178 184 181 175 170 164 170 169 162 173 178 169 164 58 101 151 132 139 140 130 139 145 154 152 156 154 152 149 145 144 149 154 159
298 313 312 250 205 222 280 309 297 262 225 187 178 178 174 167 175 171 166 179 178 175 158 143 141 159 140 153 144 145 142 126 133 151 146 146 143 144 144 148 155 156 161
296 297 296 293 241 237 265 275 300 270 220 182 180 175 172 173 171 172 176 178 175 170 150 146 143 140 111 159 120 79 125 106 94 144 146 144 146 148 148 151 148 152 153
286 289 286 291 284 246 235 277 272 269 268 184 184 175 177 180 172 171 178 173 165 147 145 151 142 154 149 133 152 146 134 72 126 85 95 139 145 143 148 152 149 152 149
271 279 281 273 274 275 258 268 292 288 286 197 192 182 181 182 179 175 177 171 156 150 151 150 151 145 147 156 165 165 152 147 48 138 114 131 123 121 157 150 146 150 155
271 269 272 272 266 264 264 249 261 277 274 212 184 189 180 178 180 175 184 172 164 151 155 152 161 162 168 179 168 160 151 151 165 241 154 173 149 167 162 155 166 167 166
289 266 267 270 263 254 254 251 255 267 254 229 186 185 180 181 181 176 178 168 166 168 169 167 166 178 172 175 168 170 173 174 175 162 151 166 163 183 176 174 178 179 178
278 274 262 260 267 263 246 245 251 264 252 244 181 183 178 171 177 171 172 170 174 176 175 168 168 176 169 171 176 178 171 122 53 148 141 158 173 190 178 177 189 189 188
274 273 261 258 250 249 243 249 250 257 253 226 178 182 180 173 176 168 167 171 176 182 176 171 175 172 167 167 163 135 165 157 124 188 191 112 171 124 125 176 198 195 196
271 269 260 259 244 258 249 253 248 249 241 203 172 178 182 175 176 171 169 168 173 178 158 137 140 155 158 169 167 174 164 174 152 93 202 142 156 147 163 209 187 191 195